Location: Argonnex
(45.9500°N, 6.1333°E)
Time: 17:15:37
(UTC+00:00)

NOSS 2-1 (D) - Pass Details

Date: 28 January 2023
Orbit: 416 x 1760 km, 63.3° (Epoch: 27 March)

Event Time Altitude Azimuth Distance (km) Brightness Sun altitude
Rises 17:06:49 0° 327° (NNW) 2,639 7.0 -6.0°
Reaches altitude 10° 17:08:53 10° 337° (NNW) 1,869 6.1 -6.3°
Maximum altitude 17:12:44 35° 45° (NE) 1,100 4.4 -7.0°
Drops below altitude 10° 17:17:51 10° 111° (ESE) 2,507 6.2 -7.8°
Sets 17:21:01 0° 119° (ESE) 3,696 7.1 -8.3°
